Regional Weather Roundup
Issued by NWS

Home | Current Version | Previous Version | Graphics & Text | Print | Product List | Glossary On
Versions: 1 2 3 4 5 6 7 8 9 10 11 12 13 14 15 16 17 18 19 20 21 22 23 24 25 26 27 28 29 30 31 32 33 34 35 36 37 38 39 40 41 42 43 44 45 46 47 48 49 50
792
ASUS44 KLIX 190405
RWRLA
LOUISIANA WEATHER ROUNDUP
NATIONAL WEATHER SERVICE NEW ORLEANS LA
1100 PM CDT THU SEP 18 2014

NOTE: "FAIR" INDICATES FEW OR NO CLOUDS BELOW 12,000 FEET WITH NO
      SIGNIFICANT WEATHER AND/OR OBSTRUCTIONS TO VISIBILITY.
      SKY/WX - SKY CONDITION AND SIGNIFICANT WEATHER.
      TMP - AIR TEMPERATURE.    DP   - DEWPOINT TEMPERATURE.
      RH  - RELATIVE HUMIDITY.  PRES - PRESSURE.
      HX  - HEAT INDEX.         WCI  - WIND CHILL INDEX.

*  THESE STATIONS ARE NOT NWS OR FAA STATIONS AND ARE NOT UNDER
   NWS QUALITY CONTROL.

LAZ040-048-061>063-065-066-069-190500-
SOUTHEAST LOUISIANA

CITY           SKY/WX    TMP DP  RH WIND       PRES   REMARKS
N.O. AUDUBON     N/A     78  72  82 MISG        N/A
N.O. INTL ARPT CLOUDY    78  70  76 CALM      29.92F
N.O. LAKEFRONT CLOUDY    79  71  76 E10       29.93S
N.O. DOWNTOWN* MOCLDY    81  68  65 CALM      29.93S
SLIDELL        LGT RAIN  74  69  85 NW6       29.93F
BATON ROUGE    LGT RAIN  72  71  97 NE3       29.94S
BOOTHVILLE     CLOUDY    79  75  87 SE5       29.93S
BELLE CHASSE   CLOUDY    75  71  87 CALM      29.92S
BOGALUSA*      LGT RAIN  74  68  81 NW5       29.96F
GALLIANO*      NOT AVBL
NEW ROADS*     MOCLDY    71  70  96 CALM      29.94R
GONZALES*      CLOUDY    73  73 100 CALM      29.92F
HAMMOND*       CLOUDY    72  68  88 E9        29.97S
HOUMA*         DRIZZLE   74  70  87 NE3       29.91F
PORT FOURCHON* MOCLDY    81  75  83 CALM      29.95F

$$

LAZ041-044-053-054-190500-
SOUTHWEST LOUISIANA

CITY           SKY/WX    TMP DP  RH WIND       PRES   REMARKS
LAKE CHARLES   MOCLDY    75  74  96 N6        29.90S
LAFAYETTE      CLOUDY    73  72  96 NE3       29.92S
PATTERSON      CLOUDY    73  72  94 CALM      29.93F
SALT POINT       N/A     76  73  91 CALM      29.90S
NEW IBERIA     CLOUDY    75  73  93 E6        29.92S
CHENAULT AIRPK NOT AVBL

$$

LAZ027-028-190500-
CENTRAL LOUISIANA

CITY           SKY/WX    TMP DP  RH WIND       PRES   REMARKS
FORT POLK      CLOUDY    74  73  97 CALM      29.92S
ALEXANDRIA INT CLOUDY    75  74  96 CALM      29.91S
ALEXANDRIA     CLOUDY    76  74  93 CALM      29.93S

$$

LAZ001-002-190500-
NORTHWEST LOUISIANA

CITY           SKY/WX    TMP DP  RH WIND       PRES   REMARKS
SHREVEPORT     MOCLDY    75  69  81 CALM      29.94R
BARKSDALE AFB  PTCLDY    77  69  75 W5        29.94R
DTN SHREVEPORT PTCLDY    74  70  87 CALM      29.94R

$$

LAZ014-016-190500-
NORTHEAST LOUISIANA

CITY           SKY/WX    TMP DP  RH WIND       PRES   REMARKS
MONROE         PTCLDY    74  72  93 E5        29.95R FOG
TALLULAH       MOCLDY    73  67  81 SE7       29.95S

$$




USA.gov is the U.S. government's official web portal to all federal, state and local government web resources and services.